This is the latest recevied weather packets stored in our database for station/object N6HGA-1. If no packets are shown the sender has not sent any weather packets the latest 10 day(s).
| Time | Temp. | Humidity | Pressure | Rain* | Wind** | Luminosity | Snow |
|---|---|---|---|---|---|---|---|
| 1777834710 | 21.11° C | 71% | - | 0 mm | - | - | - |
| 1777834410 | 21.11° C | 71% | - | 0 mm | - | - | - |
| 1777834109 | 21.11° C | 70% | - | 0 mm | - | - | - |
| 1777833207 | 20.56° C | 53% | - | 0 mm | - | - | - |
| 1777832907 | 20° C | 78% | - | 0 mm | - | - | - |
| 1777832607 | 19.44° C | 80% | - | 0 mm | - | - | - |
| 1777832304 | 19.44° C | 82% | - | 0 mm | - | - | - |
| 1777832004 | 18.89° C | 83% | - | 0 mm | - | - | - |
| 1777831704 | 18.33° C | 83% | - | 0 mm | - | - | - |
| 1777831402 | 18.33° C | 84% | - | 0 mm | - | - | - |
| 1777831102 | 18.33° C | 84% | - | 0 mm | - | - | - |
| 1777830802 | 18.89° C | 83% | - | 0 mm | - | - | - |
| 1777830501 | 19.44° C | 81% | - | 0 mm | - | - | - |
| 1777830201 | 20° C | 79% | - | 0 mm | - | - | - |
| 1777829899 | 20.56° C | 76% | - | 0 mm | - | - | - |
| 1777829598 | 20.56° C | 75% | - | 0 mm | - | - | - |
| 1777829001 | 20.56° C | 72% | - | 0 mm | - | - | - |
| 1777828695 | 20° C | 72% | - | 0 mm | - | - | - |
| 1777828395 | 20° C | 72% | - | 0 mm | - | - | - |
| 1777828095 | 20° C | 72% | - | 0 mm | - | - | - |
| 1777827795 | 20° C | 73% | - | 0 mm | - | - | - |
| 1777827492 | 20° C | 69% | - | 0 mm | - | - | - |
| 1777827191 | 19.44° C | 76% | - | 0 mm | - | - | - |
| 1777826891 | 19.44° C | 75% | - | 0 mm | - | - | - |
| 1777826591 | 19.44° C | 75% | - | 0 mm | - | - | - |
* Rain since midnight (hover to see other rain measurements)
** Current wind speed in m/s (hover to see current wind gust speed)